COSMOS 1275 DEB, 13456

Orbit data source: Space-Track

COSMOS 1275 DEB, 13456 is space debris in LEO originally from a launch on Thu, 04 Jun 1981 UTC launched from the Plesetsk Missile And Space Complex (PKMTR). Debris objects in space refer to the collection of defunct objects orbiting the Earth. Examples of debris include non-operational satellites, rocket bodies, and fragments generated from explosions, collisions, or faulty payload assembly.

Loading next visibility...
Identifier
13456, 1981-053FC
Orbit
LEO
Country
Flag of CISCIS
Related business
Manufacturer
Unknown
Mission
Spacecraft
Bus & Motor
Unknown
Mass
Unknown
Launch date (UTC)
1981-06-04 (45 years ago)
Launch vehicle
Unknown
Launch site
Plesetsk Missile And Space Complex (PKMTR)
Object type
Payload
Rocket body
Debris
Shape & HBR
Unknown shape, 0.1 m
Radar Cross Section
Small (<0.1 m²)

Expand to show TLE details & history
Last TLE update: 13 hours ago

TLE from 13 hours ago
0 COSMOS 1275 DEB
1 13456U 81053FC  26062.11922093  .00002357  00000-0  18133-2 0  9994
2 13456  82.8248  83.3237 0147397 358.6613  61.5248 13.87766231197458
Epoch: 2026-03-03T02:51Z
TLE epoch observation values (Epoch: 2026-03-03T02:51:40.688Z)
Latitude
60.95559°
Longitude
-107.46613°
Altitude
896.704 km
Speed
7.435 km/s
True Right ascension
06h 25m 25s
True Declination
60° 48' 44"
Sunlit
Object was in daylight at epoch
Visualization orbit readout
Latitude
Unknown
Longitude
Unknown
Altitude
Unknown
Speed
Unknown
Apparent Right ascension
Unknown
Apparent Declination
Unknown
Sunlit
N/A
Visualization observer readout
Local Sidereal Time
20:07:01
Azimuth
Unknown
Elevation
Unknown
Doppler factor
Unknown
Orbital elements
Apogee altitude
1,041.377 km
Perigee altitude
825.831 km
Semi-major axis
7,311.741 km
Eccentricity
0.01474
Inclination
82.8248°
RAAN
83.3237°
Arg. of periapsis
358.6613°
True anomaly
63.02249°
Mean anomaly
61.5248°
Eccentric anomaly
62.27235°
Mean motion
3.47146 °/min
Orbital period
103.7 mins
BSTAR
0.0018133
Loading maneuver chart data...
Computing Atmospheric mass density...
Loading historical data...
Loading historical data...
Loading historical data...
Loading historical data...
Loading historical data...
Loading historical data...
Loading historical data...

Documentation

Showing up to 5 results
|